Location: Byhalia Creek
(34.8270°N, 89.8040°W)
Time: 17:12:44
(UTC+00:00)

IDEFIX/ARIANE 42P - Pass Details

Date: 22 April 2026
Orbit: 779 x 797 km, 98.6° (Epoch: 9 May)

Event Time Altitude Azimuth Distance (km) Brightness Sun altitude
Rises 08:35:16 0° 357° (N) 3,276 6.3 -29.9°
Reaches altitude 10° 08:37:58 10° 344° (NNW) 2,346 5.3 -29.5°
Enters shadow 08:40:08 19° 323° (NW) 1,779 4.4 -29.2°
